Time,TemperatureF,DewpointF,PressureIn,WindDirection,WindDirectionDegrees,WindSpeedMPH,WindSpeedGustMPH,Humidity,HourlyPrecipIn,Conditions,Clouds,dailyrainin,SolarRadiationWatts/m^2,SoftwareType,DateUTC
2013-04-05 00:00:00,38.6,30.3,29.85,ENE,64,3.9,5.8,72,0.00,OVC,,0.00,0.0,WeatherDisplay:10.37,2013-04-04 22:00:00,
2013-04-05 00:05:00,38.6,30.3,29.85,ENE,59,7.8,10.4,72,0.00,BKN,,0.00,0.0,WeatherDisplay:10.37,2013-04-04 22:05:00,
2013-04-05 00:10:00,38.7,30.4,29.85,ENE,65,6.9,11.0,72,0.00,BKN,,0.00,0.0,WeatherDisplay:10.37,2013-04-04 22:10:00,
2013-04-05 00:15:00,38.8,30.5,29.85,East,81,7.5,11.5,72,0.00,BKN,,0.00,0.0,WeatherDisplay:10.37,2013-04-04 22:15:00,
2013-04-05 00:20:00,38.9,30.6,29.85,ENE,73,7.6,11.5,72,0.00,BKN,,0.00,0.0,WeatherDisplay:10.37,2013-04-04 22:20:00,
2013-04-05 00:25:00,39.0,30.4,29.85,NE,53,6.6,11.5,71,0.00,BKN,,0.00,0.0,WeatherDisplay:10.37,2013-04-04 22:25:00,
2013-04-05 00:31:00,39.3,30.3,29.85,East,82,5.7,11.5,70,0.00,BKN,,0.00,0.0,WeatherDisplay:10.37,2013-04-04 22:31:00,
2013-04-05 00:36:00,39.4,30.4,29.85,East,82,4.2,11.5,70,0.00,OVC,,0.00,0.0,WeatherDisplay:10.37,2013-04-04 22:36:00,
2013-04-05 00:41:00,39.5,30.1,29.84,East,83,6.6,8.1,69,0.00,OVC,,0.00,0.0,WeatherDisplay:10.37,2013-04-04 22:41:00,
2013-04-05 00:46:00,39.6,30.2,29.84,ENE,74,6.4,8.1,69,0.00,OVC,,0.00,0.0,WeatherDisplay:10.37,2013-04-04 22:46:00,
2013-04-05 00:51:00,39.6,29.9,29.85,ENE,65,4.2,10.4,68,0.00,OVC,,0.00,0.0,WeatherDisplay:10.37,2013-04-04 22:51:00,
2013-04-05 00:56:00,39.6,29.9,29.85,ENE,74,4.9,11.5,68,0.00,OVC,,0.00,0.0,WeatherDisplay:10.37,2013-04-04 22:56:00,
2013-04-05 01:01:00,39.6,29.9,29.84,ENE,71,5.6,6.9,68,0.00,OVC,,0.00,0.0,WeatherDisplay:10.37,2013-04-04 23:01:00,
2013-04-05 01:06:00,39.6,29.5,29.84,East,94,8.1,11.5,67,0.00,OVC,,0.00,0.0,WeatherDisplay:10.37,2013-04-04 23:06:00,
2013-04-05 01:11:00,39.5,29.4,29.84,NE,53,6.9,13.0,67,0.00,OVC,,0.00,0.0,WeatherDisplay:10.37,2013-04-04 23:11:00,
2013-04-05 01:16:00,39.5,29.4,29.84,East,97,5.8,11.5,67,0.00,FEW,,0.00,0.0,WeatherDisplay:10.37,2013-04-04 23:16:00,
2013-04-05 01:21:00,39.4,29.0,29.84,ENE,78,6.6,18.0,66,0.00,FEW,,0.00,0.0,WeatherDisplay:10.37,2013-04-04 23:21:00,
2013-04-05 01:26:00,39.3,28.9,29.84,East,101,9.7,11.5,66,0.00,FEW,,0.00,0.0,WeatherDisplay:10.37,2013-04-04 23:26:00,
2013-04-05 01:31:00,39.2,28.8,29.84,ENE,67,7.8,12.7,66,0.00,FEW,,0.00,0.0,WeatherDisplay:10.37,2013-04-04 23:31:00,
2013-04-05 01:36:00,39.1,28.7,29.84,ENE,71,8.9,16.1,66,0.00,FEW,,0.00,0.0,WeatherDisplay:10.37,2013-04-04 23:36:00,
2013-04-05 01:41:00,39.0,28.9,29.84,ENE,65,6.3,6.9,67,0.00,FEW,,0.00,0.0,WeatherDisplay:10.37,2013-04-04 23:41:00,
2013-04-05 01:46:00,39.0,28.9,29.84,ENE,76,6.4,12.7,67,0.00,FEW,,0.00,0.0,WeatherDisplay:10.37,2013-04-04 23:46:00,
2013-04-05 01:51:00,38.8,28.8,29.84,ESE,103,8.0,11.5,67,0.00,FEW,,0.00,0.0,WeatherDisplay:10.37,2013-04-04 23:51:00,
2013-04-05 01:56:00,38.7,28.7,29.84,East,82,6.4,11.0,67,0.00,FEW,,0.00,0.0,WeatherDisplay:10.37,2013-04-04 23:56:00,
2013-04-05 02:01:00,38.6,28.6,29.84,East,82,7.2,11.5,67,0.00,FEW,,0.00,0.0,WeatherDisplay:10.37,2013-04-05 00:01:00,
2013-04-05 02:06:00,38.5,28.8,29.84,ENE,69,8.1,11.5,68,0.00,FEW,,0.00,0.0,WeatherDisplay:10.37,2013-04-05 00:06:00,
2013-04-05 02:11:00,38.4,28.7,29.84,ENE,74,3.8,7.0,68,0.00,FEW,,0.00,0.0,WeatherDisplay:10.37,2013-04-05 00:11:00,
2013-04-05 02:16:00,38.4,28.7,29.84,East,92,7.3,11.5,68,0.00,FEW,,0.00,0.0,WeatherDisplay:10.37,2013-04-05 00:16:00,
2013-04-05 02:21:00,38.3,28.6,29.84,ENE,75,6.3,11.5,68,0.00,FEW,,0.00,0.0,WeatherDisplay:10.37,2013-04-05 00:21:00,
2013-04-05 02:27:00,38.2,28.9,29.84,East,79,11.2,16.1,69,0.00,FEW,,0.00,0.0,WeatherDisplay:10.37,2013-04-05 00:27:00,
2013-04-05 02:32:00,38.1,28.8,29.84,ENE,64,6.9,11.5,69,0.00,SCT,,0.00,0.0,WeatherDisplay:10.37,2013-04-05 00:32:00,
2013-04-05 02:37:00,38.0,28.7,29.84,ENE,75,5.4,10.4,69,0.00,SCT,,0.00,0.0,WeatherDisplay:10.37,2013-04-05 00:37:00,
2013-04-05 02:42:00,38.0,28.7,29.84,East,87,6.2,9.2,69,0.00,SCT,,0.00,0.0,WeatherDisplay:10.37,2013-04-05 00:42:00,
2013-04-05 02:47:00,38.0,28.7,29.83,ENE,72,9.7,16.1,69,0.00,SCT,,0.00,0.0,WeatherDisplay:10.37,2013-04-05 00:47:00,
2013-04-05 02:52:00,37.9,28.6,29.84,East,91,8.7,16.0,69,0.00,SCT,,0.00,0.0,WeatherDisplay:10.37,2013-04-05 00:52:00,
2013-04-05 02:57:00,37.9,28.6,29.84,East,89,8.4,12.7,69,0.00,SCT,,0.00,0.0,WeatherDisplay:10.37,2013-04-05 00:57:00,
2013-04-05 03:02:00,37.9,28.6,29.84,East,86,6.1,11.5,69,0.00,CLR,,0.00,0.0,WeatherDisplay:10.37,2013-04-05 01:02:00,
2013-04-05 03:07:00,37.9,29.0,29.84,East,82,5.6,11.5,70,0.00,CLR,,0.00,0.0,WeatherDisplay:10.37,2013-04-05 01:07:00,
2013-04-05 03:12:00,37.8,28.5,29.84,East,84,4.3,9.2,69,0.00,CLR,,0.00,0.0,WeatherDisplay:10.37,2013-04-05 01:12:00,
2013-04-05 03:17:00,37.7,28.8,29.84,ENE,70,4.6,6.9,70,0.00,CLR,,0.00,0.0,WeatherDisplay:10.37,2013-04-05 01:17:00,
2013-04-05 03:22:00,37.7,28.4,29.83,East,79,6.6,11.5,69,0.00,CLR,,0.00,0.0,WeatherDisplay:10.37,2013-04-05 01:22:00,
2013-04-05 03:27:00,37.7,28.8,29.83,ENE,71,10.0,13.8,70,0.00,CLR,,0.00,0.0,WeatherDisplay:10.37,2013-04-05 01:27:00,
2013-04-05 03:32:00,37.6,28.7,29.83,ENE,58,5.4,8.1,70,0.00,FEW,,0.00,0.0,WeatherDisplay:10.37,2013-04-05 01:32:00,
2013-04-05 03:37:00,37.7,28.8,29.83,NE,53,6.9,11.5,70,0.00,FEW,,0.00,0.0,WeatherDisplay:10.37,2013-04-05 01:37:00,
2013-04-05 03:42:00,37.6,29.0,29.83,ENE,61,9.2,13.8,71,0.00,FEW,,0.00,0.0,WeatherDisplay:10.37,2013-04-05 01:42:00,
2013-04-05 03:47:00,37.5,28.6,29.83,ENE,65,7.8,11.5,70,0.00,FEW,,0.00,0.0,WeatherDisplay:10.37,2013-04-05 01:47:00,
2013-04-05 03:52:00,37.5,28.9,29.83,East,84,7.3,11.5,71,0.00,FEW,,0.00,0.0,WeatherDisplay:10.37,2013-04-05 01:52:00,
2013-04-05 03:57:00,37.4,28.8,29.83,ENE,67,8.6,11.5,71,0.00,FEW,,0.00,0.0,WeatherDisplay:10.37,2013-04-05 01:57:00,
2013-04-05 04:02:00,37.4,28.8,29.83,ENE,68,3.5,12.7,71,0.00,BKN,,0.00,0.0,WeatherDisplay:10.37,2013-04-05 02:02:00,
2013-04-05 04:07:00,37.3,28.7,29.84,ENE,65,4.7,6.9,71,0.00,BKN,,0.00,0.0,WeatherDisplay:10.37,2013-04-05 02:07:00,
2013-04-05 04:12:00,37.2,28.6,29.84,NE,55,10.0,12.7,71,0.00,BKN,,0.00,0.0,WeatherDisplay:10.37,2013-04-05 02:12:00,
2013-04-05 04:17:00,37.2,28.6,29.84,NE,49,7.7,15.0,71,0.00,BKN,,0.00,0.0,WeatherDisplay:10.37,2013-04-05 02:17:00,
2013-04-05 04:22:00,37.2,28.6,29.83,ENE,57,7.3,12.7,71,0.00,BKN,,0.00,0.0,WeatherDisplay:10.37,2013-04-05 02:22:00,
2013-04-05 04:27:00,37.1,28.9,29.84,ENE,67,9.8,12.7,72,0.00,BKN,,0.00,0.0,WeatherDisplay:10.37,2013-04-05 02:27:00,
2013-04-05 04:32:00,37.1,28.9,29.83,ENE,66,6.5,13.8,72,0.00,BKN,,0.00,0.0,WeatherDisplay:10.37,2013-04-05 02:32:00,
2013-04-05 04:37:00,37.1,28.9,29.84,ENE,62,9.5,15.0,72,0.00,BKN,,0.00,0.0,WeatherDisplay:10.37,2013-04-05 02:37:00,
2013-04-05 04:42:00,37.1,28.9,29.84,NE,53,8.0,8.1,72,0.00,SCT,,0.00,0.0,WeatherDisplay:10.37,2013-04-05 02:42:00,
2013-04-05 04:47:00,37.1,28.9,29.84,NE,56,6.9,12.7,72,0.00,SCT,,0.00,0.0,WeatherDisplay:10.37,2013-04-05 02:47:00,
2013-04-05 04:52:00,37.0,28.8,29.83,NE,46,11.0,18.4,72,0.00,SCT,,0.00,0.0,WeatherDisplay:10.37,2013-04-05 02:52:00,
2013-04-05 04:57:00,37.1,29.2,29.83,ENE,76,10.3,13.8,73,0.00,SCT,,0.00,0.0,WeatherDisplay:10.37,2013-04-05 02:57:00,
2013-04-05 05:02:00,37.1,29.2,29.83,East,79,7.1,8.1,73,0.00,OVC,,0.00,0.0,WeatherDisplay:10.37,2013-04-05 03:02:00,
2013-04-05 05:07:00,37.2,29.3,29.83,ENE,61,11.5,17.3,73,0.00,OVC,,0.00,0.0,WeatherDisplay:10.37,2013-04-05 03:07:00,
2013-04-05 05:12:00,37.1,29.2,29.83,ENE,73,9.5,12.7,73,0.00,OVC,,0.00,0.0,WeatherDisplay:10.37,2013-04-05 03:12:00,
2013-04-05 05:17:00,37.1,29.2,29.83,ENE,74,8.1,18.4,73,0.00,OVC,,0.00,0.0,WeatherDisplay:10.37,2013-04-05 03:17:00,
2013-04-05 05:22:00,37.1,29.2,29.84,ENE,77,9.4,12.7,73,0.00,OVC,,0.00,0.0,WeatherDisplay:10.37,2013-04-05 03:22:00,
2013-04-05 05:28:00,37.2,29.3,29.84,ENE,60,7.4,11.5,73,0.00,OVC,,0.00,0.0,WeatherDisplay:10.37,2013-04-05 03:28:00,
2013-04-05 05:33:00,37.2,29.3,29.84,ENE,68,8.8,16.1,73,0.00,OVC,,0.00,0.0,WeatherDisplay:10.37,2013-04-05 03:33:00,
2013-04-05 05:38:00,37.2,29.3,29.84,ENE,69,10.3,15.0,73,0.00,OVC,,0.00,0.0,WeatherDisplay:10.37,2013-04-05 03:38:00,
2013-04-05 05:43:00,37.2,29.3,29.83,ENE,60,8.0,14.0,73,0.00,OVC,,0.00,0.0,WeatherDisplay:10.37,2013-04-05 03:43:00,
2013-04-05 05:48:00,37.2,29.3,29.84,NE,47,10.5,14.0,73,0.00,OVC,,0.00,0.0,WeatherDisplay:10.37,2013-04-05 03:48:00,
2013-04-05 05:53:00,37.3,29.4,29.84,NE,49,10.0,15.0,73,0.00,OVC,,0.00,0.0,WeatherDisplay:10.37,2013-04-05 03:53:00,
2013-04-05 05:58:00,37.3,29.4,29.83,ENE,72,10.1,13.8,73,0.00,OVC,,0.00,0.0,WeatherDisplay:10.37,2013-04-05 03:58:00,
2013-04-05 06:00:00,37.3,29.4,29.84,East,81,10.2,17.3,73,0.00,OVC,,0.00,0.0,WeatherDisplay:10.37,2013-04-05 04:00:00,
2013-04-05 06:05:00,37.3,29.4,29.83,ENE,71,7.7,14.0,73,0.00,OVC,,0.00,0.0,WeatherDisplay:10.37,2013-04-05 04:05:00,
2013-04-05 06:10:00,37.3,29.4,29.83,ENE,64,6.8,11.5,73,0.00,OVC,,0.00,0.0,WeatherDisplay:10.37,2013-04-05 04:10:00,
2013-04-05 06:15:00,37.3,29.8,29.84,NE,55,9.3,15.0,74,0.00,OVC,,0.00,0.0,WeatherDisplay:10.37,2013-04-05 04:15:00,
2013-04-05 06:20:00,37.3,29.8,29.84,ENE,74,7.6,13.8,74,0.00,OVC,,0.00,0.0,WeatherDisplay:10.37,2013-04-05 04:20:00,
2013-04-05 06:25:00,37.3,29.8,29.84,East,81,7.3,10.4,74,0.00,OVC,,0.00,0.0,WeatherDisplay:10.37,2013-04-05 04:25:00,
2013-04-05 06:30:00,37.2,29.7,29.84,East,92,6.3,10.4,74,0.00,OVC,,0.00,0.0,WeatherDisplay:10.37,2013-04-05 04:30:00,
2013-04-05 06:35:00,37.2,29.7,29.84,NE,55,5.8,10.4,74,0.00,OVC,,0.00,0.0,WeatherDisplay:10.37,2013-04-05 04:35:00,
2013-04-05 06:40:00,37.1,29.6,29.84,NE,51,10.6,15.0,74,0.00,OVC,,0.00,0.0,WeatherDisplay:10.37,2013-04-05 04:40:00,
2013-04-05 06:45:00,37.0,29.8,29.84,NE,51,7.8,12.0,75,0.00,OVC,,0.00,0.0,WeatherDisplay:10.37,2013-04-05 04:45:00,
2013-04-05 06:50:00,36.8,29.6,29.84,ENE,65,10.7,15.0,75,0.00,OVC,,0.00,0.0,WeatherDisplay:10.37,2013-04-05 04:50:00,
2013-04-05 06:55:00,36.5,29.6,29.84,NE,41,5.2,11.5,76,0.00,OVC,,0.00,0.0,WeatherDisplay:10.37,2013-04-05 04:55:00,
2013-04-05 07:00:00,36.3,29.4,29.84,NE,49,6.5,12.7,76,0.00,OVC,,0.00,0.0,WeatherDisplay:10.37,2013-04-05 05:00:00,
2013-04-05 07:05:00,36.2,29.7,29.84,NE,52,6.3,15.0,77,0.00,OVC,,0.00,0.0,WeatherDisplay:10.37,2013-04-05 05:05:00,
2013-04-05 07:10:00,36.1,29.6,29.84,NNE,13,4.4,9.0,77,0.00,OVC,,0.00,0.0,WeatherDisplay:10.37,2013-04-05 05:10:00,
2013-04-05 07:15:00,36.0,29.5,29.84,ENE,67,11.5,13.8,77,0.00,OVC,,0.00,0.0,WeatherDisplay:10.37,2013-04-05 05:15:00,
2013-04-05 07:21:00,35.9,29.4,29.84,NE,55,7.6,10.4,77,0.00,OVC,,0.00,5.0,WeatherDisplay:10.37,2013-04-05 05:21:00,
2013-04-05 07:26:00,35.8,29.6,29.84,NNE,30,3.1,3.5,78,0.00,OVC,,0.00,9.0,WeatherDisplay:10.37,2013-04-05 05:26:00,
2013-04-05 07:31:00,35.7,29.5,29.84,ENE,69,6.3,15.0,78,0.00,OVC,,0.00,12.0,WeatherDisplay:10.37,2013-04-05 05:31:00,
2013-04-05 07:36:00,35.6,29.1,29.85,East,88,7.7,11.5,77,0.00,OVC,,0.00,14.0,WeatherDisplay:10.37,2013-04-05 05:36:00,
2013-04-05 07:41:00,35.5,29.0,29.85,NE,55,7.8,8.1,77,0.00,OVC,,0.00,16.0,WeatherDisplay:10.37,2013-04-05 05:41:00,
2013-04-05 07:46:00,35.5,29.0,29.85,NE,50,9.6,12.7,77,0.00,OVC,,0.00,16.0,WeatherDisplay:10.37,2013-04-05 05:46:00,
2013-04-05 07:51:00,35.4,28.9,29.85,NE,49,5.5,8.1,77,0.00,OVC,,0.00,18.0,WeatherDisplay:10.37,2013-04-05 05:51:00,
2013-04-05 07:56:00,35.4,28.9,29.85,ENE,71,8.1,11.5,77,0.00,OVC,,0.00,21.0,WeatherDisplay:10.37,2013-04-05 05:56:00,
2013-04-05 08:01:00,35.4,28.9,29.85,ENE,69,9.1,12.7,77,0.00,OVC,,0.00,25.0,WeatherDisplay:10.37,2013-04-05 06:01:00,
2013-04-05 08:06:00,35.4,28.9,29.85,East,84,7.6,13.8,77,0.00,OVC,,0.00,32.0,WeatherDisplay:10.37,2013-04-05 06:06:00,
2013-04-05 08:11:00,35.4,28.6,29.85,ENE,63,7.0,15.0,76,0.00,OVC,,0.00,44.0,WeatherDisplay:10.37,2013-04-05 06:11:00,
2013-04-05 08:16:00,35.4,28.6,29.85,NE,44,8.8,11.0,76,0.00,OVC,,0.00,58.0,WeatherDisplay:10.37,2013-04-05 06:16:00,
2013-04-05 08:21:00,35.5,28.7,29.85,ENE,76,4.7,8.1,76,0.00,OVC,,0.00,67.0,WeatherDisplay:10.37,2013-04-05 06:21:00,
2013-04-05 08:26:00,35.5,28.3,29.85,NE,45,7.6,8.1,75,0.00,OVC,,0.00,65.0,WeatherDisplay:10.37,2013-04-05 06:26:00,
2013-04-05 08:31:00,35.6,28.4,29.86,ENE,67,11.0,16.1,75,0.00,OVC,,0.00,62.0,WeatherDisplay:10.37,2013-04-05 06:31:00,
2013-04-05 08:36:00,35.7,28.5,29.85,ENE,57,9.6,15.0,75,0.00,OVC,,0.00,65.0,WeatherDisplay:10.37,2013-04-05 06:36:00,
2013-04-05 08:41:00,35.7,28.2,29.86,ENE,61,7.3,10.4,74,0.00,OVC,,0.00,67.0,WeatherDisplay:10.37,2013-04-05 06:41:00,
2013-04-05 08:46:00,35.8,28.3,29.86,ENE,57,10.5,12.7,74,0.00,OVC,,0.00,79.0,WeatherDisplay:10.37,2013-04-05 06:46:00,
2013-04-05 08:51:00,35.9,28.4,29.86,ENE,78,7.4,11.5,74,0.00,OVC,,0.00,104.0,WeatherDisplay:10.37,2013-04-05 06:51:00,
2013-04-05 08:56:00,35.9,28.1,29.86,ENE,60,10.1,12.7,73,0.00,OVC,,0.00,132.0,WeatherDisplay:10.37,2013-04-05 06:56:00,
2013-04-05 09:02:00,35.8,28.0,29.86,ENE,62,8.4,12.7,73,0.00,OVC,,0.00,207.0,WeatherDisplay:10.37,2013-04-05 07:02:00,
2013-04-05 09:07:00,35.8,28.0,29.86,NE,56,10.9,17.3,73,0.00,OVC,,0.00,213.0,WeatherDisplay:10.37,2013-04-05 07:07:00,
2013-04-05 09:12:00,35.9,28.1,29.86,NE,42,9.1,17.3,73,0.00,OVC,,0.00,246.0,WeatherDisplay:10.37,2013-04-05 07:12:00,
2013-04-05 09:17:00,36.0,28.2,29.86,East,97,12.5,16.1,73,0.00,OVC,,0.00,195.0,WeatherDisplay:10.37,2013-04-05 07:17:00,
2013-04-05 09:22:00,36.2,28.4,29.86,NE,45,12.3,23.0,73,0.00,OVC,,0.00,155.0,WeatherDisplay:10.37,2013-04-05 07:22:00,
2013-04-05 09:29:00,36.1,27.9,29.87,ENE,64,10.0,11.0,72,0.00,OVC,,0.00,174.0,WeatherDisplay:10.37,2013-04-05 07:29:00,
2013-04-05 09:34:00,36.2,28.0,29.87,ENE,64,10.6,13.8,72,0.00,OVC,,0.00,186.0,WeatherDisplay:10.37,2013-04-05 07:34:00,
2013-04-05 09:39:00,36.3,28.1,29.87,NE,46,7.6,11.5,72,0.00,OVC,,0.00,206.0,WeatherDisplay:10.37,2013-04-05 07:39:00,
2013-04-05 09:44:00,36.2,28.0,29.87,East,92,15.2,19.6,72,0.00,OVC,,0.00,230.0,WeatherDisplay:10.37,2013-04-05 07:44:00,
2013-04-05 09:49:00,36.2,28.0,29.87,NE,47,15.8,19.6,72,0.00,OVC,,0.00,251.0,WeatherDisplay:10.37,2013-04-05 07:49:00,
2013-04-05 09:54:00,36.4,27.9,29.87,NNE,30,14.0,18.4,71,0.00,OVC,,0.00,285.0,WeatherDisplay:10.37,2013-04-05 07:54:00,
2013-04-05 10:00:00,36.4,27.9,29.87,ENE,59,6.9,14.0,71,0.00,OVC,,0.00,281.0,WeatherDisplay:10.37,2013-04-05 08:00:00,
2013-04-05 10:05:00,36.7,28.2,29.87,ENE,59,10.9,15.0,71,0.00,OVC,,0.00,236.0,WeatherDisplay:10.37,2013-04-05 08:05:00,
2013-04-05 10:10:00,36.9,28.4,29.87,NE,38,12.0,18.4,71,0.00,OVC,,0.00,234.0,WeatherDisplay:10.37,2013-04-05 08:10:00,
2013-04-05 10:15:00,36.7,28.2,29.87,NE,52,11.0,19.6,71,0.00,OVC,,0.00,227.0,WeatherDisplay:10.37,2013-04-05 08:15:00,
2013-04-05 10:20:00,36.7,28.2,29.87,ENE,66,13.2,19.6,71,0.00,OVC,,0.00,257.0,WeatherDisplay:10.37,2013-04-05 08:20:00,
2013-04-05 10:25:00,36.6,28.1,29.88,East,92,8.6,15.0,71,0.00,OVC,,0.00,257.0,WeatherDisplay:10.37,2013-04-05 08:25:00,
2013-04-05 10:30:00,36.8,28.3,29.88,ENE,71,13.4,23.0,71,0.00,OVC,,0.00,225.0,WeatherDisplay:10.37,2013-04-05 08:30:00,
2013-04-05 10:35:00,37.0,28.4,29.88,ENE,75,12.5,18.4,71,0.00,OVC,,0.00,214.0,WeatherDisplay:10.37,2013-04-05 08:35:00,
2013-04-05 10:40:00,37.0,28.4,29.88,NE,55,13.9,21.0,71,0.00,OVC,,0.00,257.0,WeatherDisplay:10.37,2013-04-05 08:40:00,
2013-04-05 10:45:00,37.0,28.4,29.88,ENE,63,15.3,21.9,71,0.00,OVC,,0.00,239.0,WeatherDisplay:10.37,2013-04-05 08:45:00,
2013-04-05 10:50:00,36.8,28.3,29.89,NE,43,12.4,19.6,71,0.00,OVC,,0.00,207.0,WeatherDisplay:10.37,2013-04-05 08:50:00,
2013-04-05 10:55:00,36.8,28.3,29.89,ENE,74,12.8,19.6,71,0.00,OVC,,0.00,232.0,WeatherDisplay:10.37,2013-04-05 08:55:00,
2013-04-05 11:00:00,36.9,28.4,29.89,East,84,12.0,21.9,71,0.00,OVC,,0.00,199.0,WeatherDisplay:10.37,2013-04-05 09:00:00,
2013-04-05 11:05:00,37.2,28.6,29.89,East,84,12.1,19.6,71,0.00,OVC,,0.00,185.0,WeatherDisplay:10.37,2013-04-05 09:05:00,
2013-04-05 11:10:00,37.3,28.4,29.89,ENE,57,14.3,19.6,70,0.00,OVC,,0.00,178.0,WeatherDisplay:10.37,2013-04-05 09:10:00,
2013-04-05 11:15:00,37.2,28.6,29.89,ENE,74,12.9,19.6,71,0.00,OVC,,0.00,183.0,WeatherDisplay:10.37,2013-04-05 09:15:00,
2013-04-05 11:20:00,37.2,28.3,29.89,ENE,60,10.6,19.6,70,0.00,OVC,,0.00,197.0,WeatherDisplay:10.37,2013-04-05 09:20:00,
2013-04-05 11:25:00,37.3,28.4,29.89,East,82,9.1,18.4,70,0.00,OVC,,0.00,199.0,WeatherDisplay:10.37,2013-04-05 09:25:00,
2013-04-05 11:30:00,37.5,28.6,29.90,ENE,60,12.8,13.8,70,0.00,OVC,,0.00,197.0,WeatherDisplay:10.37,2013-04-05 09:30:00,
2013-04-05 11:35:00,37.4,28.5,29.90,ENE,65,9.6,15.0,70,0.00,OVC,,0.00,165.0,WeatherDisplay:10.37,2013-04-05 09:35:00,
2013-04-05 11:40:00,37.2,28.6,29.90,NE,37,12.1,19.6,71,0.00,OVC,,0.00,183.0,WeatherDisplay:10.37,2013-04-05 09:40:00,
2013-04-05 11:45:00,37.2,28.6,29.90,ENE,71,10.1,21.0,71,0.00,OVC,,0.00,185.0,WeatherDisplay:10.37,2013-04-05 09:45:00,
2013-04-05 11:51:00,37.1,28.5,29.90,ENE,78,16.4,21.9,71,0.00,OVC,,0.00,178.0,WeatherDisplay:10.37,2013-04-05 09:51:00,
2013-04-05 11:56:00,37.2,29.0,29.90,East,84,9.7,19.0,72,0.00,OVC,,0.00,380.0,WeatherDisplay:10.37,2013-04-05 09:56:00,
2013-04-05 12:01:00,37.7,29.1,29.90,ENE,61,9.7,13.8,71,0.00,OVC,,0.00,287.0,WeatherDisplay:10.37,2013-04-05 10:01:00,
2013-04-05 12:06:00,38.1,29.5,29.90,NE,52,9.5,16.1,71,0.00,OVC,,0.00,267.0,WeatherDisplay:10.37,2013-04-05 10:06:00,
2013-04-05 12:11:00,38.3,29.3,29.90,ESE,115,10.6,15.0,70,0.00,OVC,,0.00,322.0,WeatherDisplay:10.37,2013-04-05 10:11:00,
2013-04-05 12:16:00,38.2,29.3,29.90,East,80,9.2,12.7,70,0.00,OVC,,0.00,306.0,WeatherDisplay:10.37,2013-04-05 10:16:00,
2013-04-05 12:21:00,38.4,29.4,29.91,ENE,70,8.6,12.7,70,0.00,OVC,,0.00,306.0,WeatherDisplay:10.37,2013-04-05 10:21:00,
2013-04-05 12:28:00,38.9,29.6,29.91,ENE,73,11.9,18.4,69,0.00,OVC,,0.00,345.0,WeatherDisplay:10.37,2013-04-05 10:28:00,
2013-04-05 12:33:00,39.0,29.3,29.90,ENE,68,11.9,19.6,68,0.00,OVC,,0.00,352.0,WeatherDisplay:10.37,2013-04-05 10:33:00,
2013-04-05 12:38:00,39.1,29.4,29.90,ENE,63,13.4,21.9,68,0.00,OVC,,0.00,390.0,WeatherDisplay:10.37,2013-04-05 10:38:00,
2013-04-05 12:43:00,39.3,29.6,29.90,ENE,66,13.1,18.4,68,0.00,OVC,,0.00,355.0,WeatherDisplay:10.37,2013-04-05 10:43:00,
2013-04-05 12:48:00,39.4,29.7,29.90,NE,46,13.9,20.7,68,0.00,OVC,,0.00,237.0,WeatherDisplay:10.37,2013-04-05 10:48:00,
2013-04-05 12:53:00,39.0,30.0,29.90,NNE,26,8.3,17.3,70,0.00,OVC,,0.00,209.0,WeatherDisplay:10.37,2013-04-05 10:53:00,
2013-04-05 12:58:00,39.2,29.9,29.91,NE,34,9.5,15.0,69,0.00,OVC,,0.00,302.0,WeatherDisplay:10.37,2013-04-05 10:58:00,
2013-04-05 13:03:00,39.3,30.0,29.90,East,81,12.8,13.0,69,0.00,OVC,,0.00,341.0,WeatherDisplay:10.37,2013-04-05 11:03:00,
2013-04-05 13:08:00,39.4,30.1,29.90,NNE,24,5.0,10.4,69,0.00,OVC,,0.00,308.0,WeatherDisplay:10.37,2013-04-05 11:08:00,
2013-04-05 13:13:00,39.9,30.2,29.90,NE,47,9.4,15.0,68,0.00,OVC,,0.00,404.0,WeatherDisplay:10.37,2013-04-05 11:13:00,
2013-04-05 13:19:00,40.0,29.9,29.90,NE,53,14.4,19.6,67,0.00,OVC,,0.00,320.0,WeatherDisplay:10.37,2013-04-05 11:19:00,
2013-04-05 13:24:00,39.8,30.1,29.90,ENE,63,6.9,19.6,68,0.00,OVC,,0.00,323.0,WeatherDisplay:10.37,2013-04-05 11:24:00,
2013-04-05 13:29:00,40.2,30.1,29.90,ENE,78,8.0,12.7,67,0.00,OVC,,0.00,438.0,WeatherDisplay:10.37,2013-04-05 11:29:00,
2013-04-05 13:34:00,40.4,29.5,29.90,NNE,25,8.4,19.6,65,0.00,OVC,,0.00,380.0,WeatherDisplay:10.37,2013-04-05 11:34:00,
2013-04-05 13:39:00,40.7,30.2,29.89,NNE,29,5.1,11.5,66,0.00,OVC,,0.00,826.0,WeatherDisplay:10.37,2013-04-05 11:39:00,
2013-04-05 13:44:00,41.2,29.9,29.90,NNE,33,7.0,12.7,64,0.00,BKN,,0.00,330.0,WeatherDisplay:10.37,2013-04-05 11:44:00,
2013-04-05 13:49:00,41.2,29.9,29.90,NE,47,10.7,15.0,64,0.00,BKN,,0.00,357.0,WeatherDisplay:10.37,2013-04-05 11:49:00,
2013-04-05 13:54:00,40.9,29.6,29.89,ENE,61,11.9,15.0,64,0.00,BKN,,0.00,320.0,WeatherDisplay:10.37,2013-04-05 11:54:00,
2013-04-05 13:59:00,41.0,29.3,29.90,NE,52,11.2,18.0,63,0.00,BKN,,0.00,309.0,WeatherDisplay:10.37,2013-04-05 11:59:00,
2013-04-05 14:04:00,41.3,29.6,29.90,ENE,58,9.2,19.6,63,0.00,OVC,,0.00,638.0,WeatherDisplay:10.37,2013-04-05 12:04:00,
2013-04-05 14:09:00,41.7,29.6,29.90,NNE,18,8.7,10.4,62,0.00,OVC,,0.00,271.0,WeatherDisplay:10.37,2013-04-05 12:09:00,
2013-04-05 14:14:00,42.1,29.6,29.90,NE,39,8.0,18.0,61,0.00,OVC,,0.00,325.0,WeatherDisplay:10.37,2013-04-05 12:14:00,
2013-04-05 14:19:00,41.6,28.7,29.90,ENE,58,13.7,18.4,60,0.00,OVC,,0.00,308.0,WeatherDisplay:10.37,2013-04-05 12:19:00,
2013-04-05 14:24:00,41.9,29.0,29.90,NE,48,6.9,17.3,60,0.00,OVC,,0.00,290.0,WeatherDisplay:10.37,2013-04-05 12:24:00,
2013-04-05 14:29:00,41.6,28.3,29.90,ENE,65,14.1,24.2,59,0.00,OVC,,0.00,471.0,WeatherDisplay:10.37,2013-04-05 12:29:00,
2013-04-05 14:34:00,42.0,28.7,29.90,East,81,5.1,7.0,59,0.00,OVC,,0.00,380.0,WeatherDisplay:10.37,2013-04-05 12:34:00,
2013-04-05 14:39:00,42.7,28.5,29.89,NE,41,9.3,10.4,57,0.00,OVC,,0.00,376.0,WeatherDisplay:10.37,2013-04-05 12:39:00,
2013-04-05 14:44:00,43.1,28.4,29.89,NE,39,8.7,13.8,56,0.00,OVC,,0.00,884.0,WeatherDisplay:10.37,2013-04-05 12:44:00,
2013-04-05 14:49:00,43.2,28.5,29.89,ENE,76,12.2,14.0,56,0.00,OVC,,0.00,826.0,WeatherDisplay:10.37,2013-04-05 12:49:00,
2013-04-05 14:55:00,43.2,28.1,29.89,NNE,29,9.8,20.7,55,0.00,OVC,,0.00,432.0,WeatherDisplay:10.37,2013-04-05 12:55:00,
2013-04-05 15:00:00,43.4,28.3,29.89,NE,48,11.5,13.8,55,0.00,OVC,,0.00,343.0,WeatherDisplay:10.37,2013-04-05 13:00:00,
2013-04-05 15:05:00,43.1,27.5,29.89,ENE,57,11.9,18.4,54,0.00,OVC,,0.00,411.0,WeatherDisplay:10.37,2013-04-05 13:05:00,
2013-04-05 15:10:00,43.6,28.5,29.89,ENE,78,12.2,23.0,55,0.00,OVC,,0.00,810.0,WeatherDisplay:10.37,2013-04-05 13:10:00,
2013-04-05 15:15:00,43.6,27.6,29.89,East,86,8.1,16.1,53,0.00,OVC,,0.00,396.0,WeatherDisplay:10.37,2013-04-05 13:15:00,
2013-04-05 15:20:00,44.0,27.5,29.89,NE,47,10.4,19.6,52,0.00,OVC,,0.00,552.0,WeatherDisplay:10.37,2013-04-05 13:20:00,
2013-04-05 15:25:00,44.2,27.7,29.88,East,86,9.9,15.0,52,0.00,OVC,,0.00,357.0,WeatherDisplay:10.37,2013-04-05 13:25:00,
2013-04-05 15:31:00,44.0,27.5,29.89,NNE,30,8.4,16.0,52,0.00,BKN,,0.00,360.0,WeatherDisplay:10.37,2013-04-05 13:31:00,
2013-04-05 15:36:00,43.6,26.6,29.89,ENE,64,9.2,15.0,51,0.00,BKN,,0.00,362.0,WeatherDisplay:10.37,2013-04-05 13:36:00,
2013-04-05 15:41:00,43.8,27.7,29.89,North,9,6.9,13.0,53,0.00,BKN,,0.00,276.0,WeatherDisplay:10.37,2013-04-05 13:41:00,
2013-04-05 15:46:00,43.8,26.8,29.89,ENE,59,8.9,15.0,51,0.00,BKN,,0.00,411.0,WeatherDisplay:10.37,2013-04-05 13:46:00,
2013-04-05 15:51:00,44.0,27.5,29.89,ENE,78,10.2,15.0,52,0.00,BKN,,0.00,285.0,WeatherDisplay:10.37,2013-04-05 13:51:00,
2013-04-05 15:56:00,44.3,27.3,29.89,ENE,60,6.3,13.8,51,0.00,BKN,,0.00,374.0,WeatherDisplay:10.37,2013-04-05 13:56:00,
2013-04-05 16:02:00,44.5,27.5,29.89,NE,49,7.5,11.5,51,0.00,BKN,,0.00,373.0,WeatherDisplay:10.37,2013-04-05 14:02:00,
2013-04-05 16:07:00,44.9,27.3,29.89,ENE,64,13.0,15.0,50,0.00,BKN,,0.00,359.0,WeatherDisplay:10.37,2013-04-05 14:07:00,
2013-04-05 16:12:00,44.5,27.0,29.89,ENE,58,5.7,11.5,50,0.00,BKN,,0.00,512.0,WeatherDisplay:10.37,2013-04-05 14:12:00,
2013-04-05 16:18:00,44.9,26.9,29.89,NE,56,5.6,11.5,49,0.00,BKN,,0.00,369.0,WeatherDisplay:10.37,2013-04-05 14:18:00,
2013-04-05 16:23:00,44.8,26.8,29.89,East,98,13.0,19.6,49,0.00,BKN,,0.00,385.0,WeatherDisplay:10.37,2013-04-05 14:23:00,
2013-04-05 16:28:00,44.7,27.2,29.88,ENE,68,7.9,12.7,50,0.00,BKN,,0.00,633.0,WeatherDisplay:10.37,2013-04-05 14:28:00,
2013-04-05 16:33:00,44.5,26.5,29.89,ENE,63,11.3,18.4,49,0.00,OVC,,0.00,417.0,WeatherDisplay:10.37,2013-04-05 14:33:00,
2013-04-05 16:38:00,44.6,27.1,29.88,ENE,65,4.1,10.0,50,0.00,OVC,,0.00,332.0,WeatherDisplay:10.37,2013-04-05 14:38:00,
2013-04-05 16:43:00,45.0,26.9,29.88,ENE,68,7.2,11.5,49,0.00,OVC,,0.00,255.0,WeatherDisplay:10.37,2013-04-05 14:43:00,
2013-04-05 16:48:00,45.2,28.6,29.89,NNE,22,7.1,11.5,52,0.00,OVC,,0.00,229.0,WeatherDisplay:10.37,2013-04-05 14:48:00,
2013-04-05 16:53:00,44.8,30.9,29.89,North,8,4.9,9.2,58,0.00,OVC,,0.00,258.0,WeatherDisplay:10.37,2013-04-05 14:53:00,
2013-04-05 16:58:00,44.4,31.4,29.89,ENE,63,4.9,8.1,60,0.00,OVC,,0.00,429.0,WeatherDisplay:10.37,2013-04-05 14:58:00,
2013-04-05 17:04:00,44.3,31.7,29.89,North,1,7.3,11.5,61,0.00,OVC,,0.00,330.0,WeatherDisplay:10.37,2013-04-05 15:04:00,
2013-04-05 17:09:00,44.2,32.0,29.89,North,10,9.7,13.8,62,0.00,OVC,,0.00,464.0,WeatherDisplay:10.37,2013-04-05 15:09:00,
2013-04-05 17:14:00,44.3,31.3,29.89,North,5,10.9,13.8,60,0.00,OVC,,0.00,316.0,WeatherDisplay:10.37,2013-04-05 15:14:00,
2013-04-05 17:19:00,44.3,31.3,29.89,ENE,66,4.6,11.5,60,0.00,OVC,,0.00,353.0,WeatherDisplay:10.37,2013-04-05 15:19:00,
2013-04-05 17:24:00,44.3,31.3,29.89,North,9,7.2,15.0,60,0.00,OVC,,0.00,265.0,WeatherDisplay:10.37,2013-04-05 15:24:00,
2013-04-05 17:30:00,44.3,31.7,29.89,NNW,345,6.9,10.4,61,0.00,OVC,,0.00,214.0,WeatherDisplay:10.37,2013-04-05 15:30:00,
2013-04-05 17:35:00,44.0,31.8,29.89,North,1,5.6,9.2,62,0.00,OVC,,0.00,278.0,WeatherDisplay:10.37,2013-04-05 15:35:00,
2013-04-05 17:40:00,44.0,31.4,29.89,NNE,32,7.5,10.4,61,0.00,OVC,,0.00,239.0,WeatherDisplay:10.37,2013-04-05 15:40:00,
2013-04-05 17:45:00,44.0,31.8,29.89,NNE,13,6.6,10.4,62,0.00,OVC,,0.00,241.0,WeatherDisplay:10.37,2013-04-05 15:45:00,
2013-04-05 17:50:00,43.9,31.7,29.89,NNW,328,6.0,11.5,62,0.00,OVC,,0.00,202.0,WeatherDisplay:10.37,2013-04-05 15:50:00,
2013-04-05 17:55:00,43.8,32.0,29.89,North,1,4.2,11.5,63,0.00,OVC,,0.00,183.0,WeatherDisplay:10.37,2013-04-05 15:55:00,
2013-04-05 18:00:00,43.8,31.6,29.89,NNE,22,8.4,15.0,62,0.00,OVC,,0.00,171.0,WeatherDisplay:10.37,2013-04-05 16:00:00,
2013-04-05 18:05:00,43.7,31.1,29.89,NNE,21,8.1,13.8,61,0.00,OVC,,0.00,153.0,WeatherDisplay:10.37,2013-04-05 16:05:00,
2013-04-05 18:10:00,43.6,31.4,29.89,NNW,345,6.2,8.1,62,0.00,OVC,,0.00,141.0,WeatherDisplay:10.37,2013-04-05 16:10:00,
2013-04-05 18:15:00,43.8,31.6,29.90,North,5,6.8,9.2,62,0.00,OVC,,0.00,130.0,WeatherDisplay:10.37,2013-04-05 16:15:00,
2013-04-05 18:20:00,43.5,31.3,29.90,North,7,5.5,9.2,62,0.00,OVC,,0.00,116.0,WeatherDisplay:10.37,2013-04-05 16:20:00,
2013-04-05 18:25:00,43.5,31.3,29.90,North,1,4.2,11.5,62,0.00,OVC,,0.00,111.0,WeatherDisplay:10.37,2013-04-05 16:25:00,
2013-04-05 18:30:00,43.5,31.3,29.90,NW,307,4.9,9.2,62,0.00,OVC,,0.00,104.0,WeatherDisplay:10.37,2013-04-05 16:30:00,
2013-04-05 18:36:00,43.5,31.3,29.90,North,10,4.0,6.9,62,0.00,OVC,,0.00,98.0,WeatherDisplay:10.37,2013-04-05 16:36:00,
2013-04-05 18:41:00,43.7,31.5,29.90,NNW,346,5.0,8.1,62,0.00,OVC,,0.00,95.0,WeatherDisplay:10.37,2013-04-05 16:41:00,
2013-04-05 18:46:00,43.5,31.7,29.90,NNE,16,6.0,9.2,63,0.00,OVC,,0.00,84.0,WeatherDisplay:10.37,2013-04-05 16:46:00,
2013-04-05 18:51:00,43.3,31.5,29.90,NNE,30,7.5,11.5,63,0.00,OVC,,0.00,72.0,WeatherDisplay:10.37,2013-04-05 16:51:00,
2013-04-05 18:56:00,43.2,31.0,29.90,NNE,22,3.6,10.4,62,0.00,OVC,,0.00,70.0,WeatherDisplay:10.37,2013-04-05 16:56:00,
2013-04-05 19:01:00,43.3,31.5,29.90,NNE,20,3.8,5.8,63,0.00,OVC,,0.00,67.0,WeatherDisplay:10.37,2013-04-05 17:01:00,
2013-04-05 19:06:00,43.4,31.6,29.90,NNE,13,4.6,5.8,63,0.00,OVC,,0.00,58.0,WeatherDisplay:10.37,2013-04-05 17:06:00,
2013-04-05 19:11:00,43.3,31.1,29.91,NNE,13,4.5,6.9,62,0.00,OVC,,0.00,51.0,WeatherDisplay:10.37,2013-04-05 17:11:00,
2013-04-05 19:16:00,43.3,30.7,29.91,ENE,63,4.7,12.0,61,0.00,OVC,,0.00,47.0,WeatherDisplay:10.37,2013-04-05 17:16:00,
2013-04-05 19:21:00,43.5,29.2,29.91,NNE,17,5.2,8.1,57,0.00,OVC,,0.00,44.0,WeatherDisplay:10.37,2013-04-05 17:21:00,
2013-04-05 19:26:00,43.6,28.9,29.91,ENE,59,4.5,6.9,56,0.00,OVC,,0.00,37.0,WeatherDisplay:10.37,2013-04-05 17:26:00,
2013-04-05 19:32:00,43.5,28.8,29.92,NE,42,10.3,17.3,56,0.00,OVC,,0.00,33.0,WeatherDisplay:10.37,2013-04-05 17:32:00,
2013-04-05 19:37:00,43.3,28.6,29.92,NE,47,5.2,11.5,56,0.00,OVC,,0.00,30.0,WeatherDisplay:10.37,2013-04-05 17:37:00,
2013-04-05 19:42:00,43.3,28.6,29.92,NNE,15,4.0,9.0,56,0.00,OVC,,0.00,25.0,WeatherDisplay:10.37,2013-04-05 17:42:00,
2013-04-05 19:47:00,43.2,28.5,29.92,NE,48,8.4,11.5,56,0.00,OVC,,0.00,19.0,WeatherDisplay:10.37,2013-04-05 17:47:00,
2013-04-05 19:52:00,43.1,28.4,29.92,NE,51,3.6,4.6,56,0.00,OVC,,0.00,16.0,WeatherDisplay:10.37,2013-04-05 17:52:00,
2013-04-05 19:57:00,43.1,28.4,29.92,NE,38,5.0,8.1,56,0.00,OVC,,0.00,12.0,WeatherDisplay:10.37,2013-04-05 17:57:00,
2013-04-05 20:02:00,43.0,28.3,29.92,NE,35,5.7,11.5,56,0.00,CLR,,0.00,9.0,WeatherDisplay:10.37,2013-04-05 18:02:00,
2013-04-05 20:07:00,42.8,28.2,29.93,NE,34,6.7,9.2,56,0.00,CLR,,0.00,7.0,WeatherDisplay:10.37,2013-04-05 18:07:00,
2013-04-05 20:12:00,42.8,28.2,29.93,NE,53,6.3,9.2,56,0.00,CLR,,0.00,5.0,WeatherDisplay:10.37,2013-04-05 18:12:00,
2013-04-05 20:17:00,42.7,27.6,29.93,NNE,32,10.1,12.7,55,0.00,CLR,,0.00,0.0,WeatherDisplay:10.37,2013-04-05 18:17:00,
2013-04-05 20:22:00,42.5,27.0,29.93,NE,50,8.1,15.0,54,0.00,CLR,,0.00,0.0,WeatherDisplay:10.37,2013-04-05 18:22:00,
2013-04-05 20:27:00,42.4,27.3,29.94,NNE,24,7.5,10.4,55,0.00,CLR,,0.00,0.0,WeatherDisplay:10.37,2013-04-05 18:27:00,
2013-04-05 20:32:00,42.2,27.2,29.94,NNE,19,3.9,12.0,55,0.00,CLR,,0.00,0.0,WeatherDisplay:10.37,2013-04-05 18:32:00,
2013-04-05 20:37:00,42.0,26.5,29.94,ENE,63,5.1,12.7,54,0.00,CLR,,0.00,0.0,WeatherDisplay:10.37,2013-04-05 18:37:00,
2013-04-05 20:42:00,41.8,26.8,29.95,NNE,15,4.5,10.4,55,0.00,CLR,,0.00,0.0,WeatherDisplay:10.37,2013-04-05 18:42:00,
2013-04-05 20:47:00,41.6,27.0,29.95,NE,51,7.2,10.4,56,0.00,CLR,,0.00,0.0,WeatherDisplay:10.37,2013-04-05 18:47:00,
2013-04-05 20:52:00,41.4,26.8,29.95,NNE,32,7.9,13.8,56,0.00,CLR,,0.00,0.0,WeatherDisplay:10.37,2013-04-05 18:52:00,
2013-04-05 20:57:00,41.2,27.1,29.95,NNE,24,7.9,12.0,57,0.00,CLR,,0.00,0.0,WeatherDisplay:10.37,2013-04-05 18:57:00,
2013-04-05 21:02:00,41.0,27.3,29.96,NNE,14,7.9,12.7,58,0.00,CLR,,0.00,0.0,WeatherDisplay:10.37,2013-04-05 19:02:00,
2013-04-05 21:07:00,40.8,27.5,29.96,NNE,24,5.6,12.7,59,0.00,CLR,,0.00,0.0,WeatherDisplay:10.37,2013-04-05 19:07:00,
2013-04-05 21:12:00,40.7,27.9,29.96,NNE,12,4.0,4.6,60,0.00,CLR,,0.00,0.0,WeatherDisplay:10.37,2013-04-05 19:12:00,
2013-04-05 21:17:00,40.6,28.2,29.97,NE,40,7.2,11.5,61,0.00,CLR,,0.00,0.0,WeatherDisplay:10.37,2013-04-05 19:17:00,
2013-04-05 21:22:00,40.4,28.0,29.97,ENE,71,4.6,9.2,61,0.00,CLR,,0.00,0.0,WeatherDisplay:10.37,2013-04-05 19:22:00,
2013-04-05 21:29:00,40.2,28.2,29.97,NNE,12,7.1,12.7,62,0.00,CLR,,0.00,0.0,WeatherDisplay:10.37,2013-04-05 19:29:00,
2013-04-05 21:34:00,40.0,28.4,29.97,NE,43,4.4,11.0,63,0.00,CLR,,0.00,0.0,WeatherDisplay:10.37,2013-04-05 19:34:00,
2013-04-05 21:40:00,39.9,28.7,29.97,NE,37,4.0,8.1,64,0.00,CLR,,0.00,0.0,WeatherDisplay:10.37,2013-04-05 19:40:00,
2013-04-05 21:45:00,39.8,29.0,29.97,NE,38,4.7,6.9,65,0.00,CLR,,0.00,0.0,WeatherDisplay:10.37,2013-04-05 19:45:00,
2013-04-05 21:50:00,39.7,28.9,29.97,North,5,4.8,9.2,65,0.00,CLR,,0.00,0.0,WeatherDisplay:10.37,2013-04-05 19:50:00,
2013-04-05 21:55:00,39.6,28.8,29.98,NNE,22,4.8,6.9,65,0.00,CLR,,0.00,0.0,WeatherDisplay:10.37,2013-04-05 19:55:00,
2013-04-05 22:00:00,39.5,29.1,29.98,NE,36,5.7,10.4,66,0.00,CLR,,0.00,0.0,WeatherDisplay:10.37,2013-04-05 20:00:00,
2013-04-05 22:05:00,39.4,29.0,29.98,NNE,26,6.8,9.2,66,0.00,CLR,,0.00,0.0,WeatherDisplay:10.37,2013-04-05 20:05:00,
2013-04-05 22:10:00,39.3,29.2,29.98,NE,43,9.1,13.8,67,0.00,CLR,,0.00,0.0,WeatherDisplay:10.37,2013-04-05 20:10:00,
2013-04-05 22:15:00,39.3,29.2,29.98,NE,42,7.6,13.8,67,0.00,CLR,,0.00,0.0,WeatherDisplay:10.37,2013-04-05 20:15:00,
2013-04-05 22:20:00,39.3,29.2,29.99,NE,41,6.5,13.8,67,0.00,CLR,,0.00,0.0,WeatherDisplay:10.37,2013-04-05 20:20:00,
2013-04-05 22:25:00,39.2,29.5,29.99,NE,56,3.3,6.9,68,0.00,CLR,,0.00,0.0,WeatherDisplay:10.37,2013-04-05 20:25:00,
2013-04-05 22:30:00,39.3,29.6,29.99,North,9,4.5,6.9,68,0.00,CLR,,0.00,0.0,WeatherDisplay:10.37,2013-04-05 20:30:00,
2013-04-05 22:35:00,39.2,29.5,29.99,NE,35,2.8,5.8,68,0.00,CLR,,0.00,0.0,WeatherDisplay:10.37,2013-04-05 20:35:00,
2013-04-05 22:40:00,39.2,29.5,29.99,NNE,22,6.6,8.1,68,0.00,CLR,,0.00,0.0,WeatherDisplay:10.37,2013-04-05 20:40:00,
2013-04-05 22:45:00,39.2,29.9,29.99,NE,44,5.7,9.2,69,0.00,CLR,,0.00,0.0,WeatherDisplay:10.37,2013-04-05 20:45:00,
2013-04-05 22:50:00,39.1,29.8,29.99,NE,54,5.2,8.1,69,0.00,CLR,,0.00,0.0,WeatherDisplay:10.37,2013-04-05 20:50:00,
2013-04-05 22:55:00,39.1,29.8,29.99,NNE,24,4.1,5.8,69,0.00,CLR,,0.00,0.0,WeatherDisplay:10.37,2013-04-05 20:55:00,
2013-04-05 23:00:00,39.1,29.8,29.99,North,8,8.1,16.1,69,0.00,CLR,,0.00,0.0,WeatherDisplay:10.37,2013-04-05 21:00:00,
2013-04-05 23:05:00,39.0,30.0,29.99,NNE,13,4.8,6.9,70,0.00,CLR,,0.00,0.0,WeatherDisplay:10.37,2013-04-05 21:05:00,
2013-04-05 23:10:00,39.0,30.0,29.99,NE,42,4.8,8.1,70,0.00,CLR,,0.00,0.0,WeatherDisplay:10.37,2013-04-05 21:10:00,
2013-04-05 23:15:00,38.9,29.9,29.99,NNE,33,3.9,6.9,70,0.00,CLR,,0.00,0.0,WeatherDisplay:10.37,2013-04-05 21:15:00,
2013-04-05 23:20:00,38.9,30.3,30.00,NNE,25,5.0,11.5,71,0.00,CLR,,0.00,0.0,WeatherDisplay:10.37,2013-04-05 21:20:00,
2013-04-05 23:25:00,38.9,30.3,30.00,NNE,32,4.9,8.1,71,0.00,CLR,,0.00,0.0,WeatherDisplay:10.37,2013-04-05 21:25:00,
2013-04-05 23:30:00,38.8,30.2,30.00,ENE,67,3.7,8.1,71,0.00,CLR,,0.00,0.0,WeatherDisplay:10.37,2013-04-05 21:30:00,
2013-04-05 23:36:00,38.7,30.1,30.00,NNE,22,5.5,8.1,71,0.00,CLR,,0.00,0.0,WeatherDisplay:10.37,2013-04-05 21:36:00,
2013-04-05 23:41:00,38.6,30.3,30.00,NE,49,5.3,6.9,72,0.00,CLR,,0.00,0.0,WeatherDisplay:10.37,2013-04-05 21:41:00,
2013-04-05 23:46:00,38.6,30.3,30.00,NE,41,2.7,4.6,72,0.00,CLR,,0.00,0.0,WeatherDisplay:10.37,2013-04-05 21:46:00,
2013-04-05 23:52:00,38.5,30.6,30.00,North,9,6.9,10.4,73,0.00,CLR,,0.00,0.0,WeatherDisplay:10.37,2013-04-05 21:52:00,
2013-04-05 23:57:00,38.4,30.8,30.00,NNE,17,3.3,6.9,74,0.00,CLR,,0.00,0.0,WeatherDisplay:10.37,2013-04-05 21:57:00,